Iron Mountain, MI

4:08 AM CDT on April 24, 2017 (GMT -0500)
Ford

Weather History for KIMT - March, 2013

Change the Weather History Date:

Saturday, March 2, 2013

  Actual Average Record
Temperature  
Mean Temperature 16 °F -  
Max Temperature 27 °F 35 °F 56 °F (1993)
Min Temperature 5 °F 13 °F -24 °F (1989)
Degree Days  
Heating Degree Days 48    
Moisture  
Dew Point 5 °F    
Average Humidity 67    
Maximum Humidity 84    
Minimum Humidity 43    
Precipitation  
Precipitation 0.00 in - - ()
Sea Level Pressure  
Sea Level Pressure 30.24 in    
Wind  
Wind Speed 5 mph (NNW)    
Max Wind Speed 15 mph    
Max Gust Speed 20 mph    
Visibility 10 miles    
Events      
Averages and records for this station are not official NWS values.
T = Trace of Precipitation, MM = Missing Value Source: NWS Daily Summary

Daily Weather History Graph

Daily Weather History Graph

Search for Another Location

Airport or City:

Trip Planner

Search our weather history database for the weather conditions in past years. The results will help you decide how hot, cold, wet, or windy it might be!

Date:

Astronomy

Mar. 02, 2013 Rise Set
Actual Time 6:28 AM CST 5:40 PM CST
Civil Twilight 5:58 AM CST 6:10 PM CST
Nautical Twilight 5:24 AM CST 6:45 PM CST
Astronomical Twilight 4:50 AM CST 7:19 PM CST
Moon 11:40 PM CST (3/2) 8:38 AM CST (3/2)
Length of Visible Light 12h 11m
Length of Day
11h 12m
Waning Gibbous, 74% of the Moon is Illuminated
Mar 2
Waning Gibbous
Mar 4
Last Quarter
Mar 11
New
Mar 19
First Quarter
Mar 27
Full

Hourly Weather History & Observations

Time (CST) Temp. Windchill Dew Point Humidity Pressure Visibility Wind Dir Wind Speed Gust Speed Precip Events Conditions
1:54 AM 9.0 °F - 3.9 °F 80% 30.29 in 10.0 mi Calm Calm - N/A   Clear
2:54 AM 8.1 °F 1.4 °F 3.9 °F 83% 30.28 in 10.0 mi NW 3.5 mph - N/A   Clear
3:54 AM 8.1 °F 1.4 °F 3.0 °F 80% 30.28 in 10.0 mi NNW 3.5 mph - N/A   Clear
4:54 AM 6.1 °F -2.8 °F 1.9 °F 83% 30.28 in 10.0 mi North 4.6 mph - N/A   Clear
5:54 AM 8.1 °F - 3.9 °F 83% 30.29 in 10.0 mi Calm Calm - N/A   Clear
6:54 AM 8.1 °F 1.4 °F 3.9 °F 83% 30.29 in 10.0 mi NNW 3.5 mph - N/A   Clear
7:54 AM 12.0 °F 1.5 °F 7.0 °F 80% 30.29 in 10.0 mi NNW 6.9 mph - N/A   Mostly Cloudy
8:54 AM 17.1 °F 5.8 °F 9.0 °F 71% 30.28 in 10.0 mi NNW 9.2 mph - N/A   Overcast
9:54 AM 19.9 °F 9.3 °F 10.0 °F 65% 30.27 in 10.0 mi North 9.2 mph - N/A   Scattered Clouds
10:54 AM 21.9 °F 11.7 °F 9.0 °F 58% 30.26 in 10.0 mi North 9.2 mph - N/A   Clear
11:54 AM 25.0 °F 12.6 °F 10.0 °F 53% 30.25 in 10.0 mi North 15.0 mph 19.6 mph N/A   Clear
12:54 PM 26.1 °F 16.2 °F 9.0 °F 49% 30.23 in 10.0 mi NNW 10.4 mph - N/A   Clear
2:54 PM 27.0 °F 18.0 °F 9.0 °F 47% 30.21 in 10.0 mi North 9.2 mph - N/A   Clear
3:54 PM 27.0 °F 17.3 °F 7.0 °F 43% 30.20 in 10.0 mi North 10.4 mph - N/A   Clear
4:54 PM 25.0 °F 15.5 °F 6.1 °F 45% 30.20 in 10.0 mi North 9.2 mph - N/A   Clear
5:54 PM 19.9 °F 11.1 °F 5.0 °F 52% 30.22 in 10.0 mi North 6.9 mph - N/A   Clear
6:54 PM 14.0 °F 5.1 °F 1.0 °F 56% 30.23 in 10.0 mi NNW 5.8 mph - N/A   Clear
7:54 PM 17.1 °F 10.0 °F 1.9 °F 52% 30.21 in 10.0 mi NNE 4.6 mph - N/A   Clear
8:54 PM 10.9 °F 4.7 °F 1.9 °F 67% 30.22 in 10.0 mi NNW 3.5 mph - N/A   Clear
9:54 PM 9.0 °F 2.4 °F 1.9 °F 73% 30.21 in 10.0 mi NNW 3.5 mph - N/A   Clear
10:54 PM 7.0 °F 0.1 °F 1.0 °F 77% 30.20 in 10.0 mi NNW 3.5 mph - N/A   Clear
11:54 PM 5.0 °F -2.1 °F 1.0 °F 84% 30.19 in 10.0 mi NW 3.5 mph - N/A   Clear